User: anonymous   Login
Location: Unspecified
(0.0000°N, 0.0000°E)
Time: 05:48:19
(UTC+00:00)
Language:

OPTUS D2 - Orbit

View from above orbital plane
View from above orbital plane
View from above satellite
View from above satellite

Ground track
Ground track

The orbit data is extracted from the following two-line orbital elements,

1 32252U 07044A   18324.79249822 -.00000170  00000-0  00000+0 0  9998
2 32252   0.0368  93.4779 0003859 142.0544 261.5594  1.00272051 40719
Epoch (UTC): 20 November 2018 19:01:11
Eccentricity: 0.0003859
inclination: 0.0368°
perigee height: 35770 km
apogee height: 35802 km
right ascension of ascending node: 93.4779°
argument of perigee: 142.0544°
revolutions per day: 1.00272051
mean anomaly at epoch: 261.5594°
orbit number at epoch: 4071

The dashed part of the orbit path shows where the satellite is in the earth's shadow,  

DLR